Wiscasset, ME

5:35 AM EDT on September 25, 2016 (GMT -0400)
Wiscasset

Weather History for KIWI - October, 2012

Change the Weather History Date:

Sunday, October 7, 2012

  Actual Average Record
Temperature  
Mean Temperature 47 °F -  
Max Temperature 57 °F 58 °F 75 °F (2005)
Min Temperature 39 °F 37 °F 28 °F (1998)
Degree Days  
Heating Degree Days 18    
Moisture  
Dew Point 43 °F    
Average Humidity 82    
Maximum Humidity 97    
Minimum Humidity 49    
Precipitation  
Precipitation 0.03 in - - ()
Sea Level Pressure  
Sea Level Pressure 30.00 in    
Wind  
Wind Speed 0 mph (South)    
Max Wind Speed 6 mph    
Max Gust Speed -    
Visibility 8 miles    
Events Rain    
Averages and records for this station are not official NWS values.
T = Trace of Precipitation, MM = Missing Value Source: NWS Daily Summary

Daily Weather History Graph

Daily Weather History Graph

Search for Another Location

Airport or City:

Trip Planner

Search our weather history database for the weather conditions in past years. The results will help you decide how hot, cold, wet, or windy it might be!

Date:

Astronomy

Oct. 07, 2012 Rise Set
Actual Time 6:44 AM EDT 6:08 PM EDT
Civil Twilight 6:15 AM EDT 6:36 PM EDT
Nautical Twilight 5:41 AM EDT 7:10 PM EDT
Astronomical Twilight 5:08 AM EDT 7:43 PM EDT
Moon 11:08 PM EDT (10/7) 1:27 PM EDT (10/7)
Length of Visible Light 12h 21m
Length of Day
11h 23m
Waning Gibbous, 56% of the Moon is Illuminated
Oct 7
Waning Gibbous
Oct 8
Last Quarter
Oct 15
New
Oct 21
First Quarter
Oct 29
Full

Hourly Weather History & Observations

Time (EDT) Temp. Dew Point Humidity Pressure Visibility Wind Dir Wind Speed Gust Speed Precip Events Conditions
12:08 AM 48.2 °F 46.4 °F 93% 29.88 in 1.5 mi Calm Calm - N/A   Overcast
12:13 AM 48.2 °F 44.6 °F 87% 29.88 in 0.8 mi Calm Calm - N/A   Mist
12:49 AM 46.4 °F 44.6 °F 93% 29.88 in 1.0 mi Calm Calm - N/A   Overcast
12:53 AM 46.9 °F 45.0 °F 93% 29.89 in 2.0 mi Calm Calm - N/A   Overcast
1:00 AM 46.4 °F 44.6 °F 93% 29.89 in 9.0 mi Calm Calm - N/A   Overcast
1:53 AM 46.9 °F 46.0 °F 97% 29.92 in 10.0 mi Calm Calm - N/A   Mostly Cloudy
2:53 AM 46.0 °F 44.1 °F 93% 29.94 in 7.0 mi Calm Calm - N/A   Overcast
3:53 AM 44.1 °F 42.1 °F 93% 29.96 in 9.0 mi Calm Calm - N/A   Partly Cloudy
4:53 AM 42.1 °F 39.9 °F 92% 29.97 in 5.0 mi Calm Calm - N/A   Clear
5:44 AM 41.0 °F 39.2 °F 93% 29.99 in 6.0 mi Calm Calm - N/A   Partly Cloudy
5:53 AM 41.0 °F 37.9 °F 89% 29.98 in 4.0 mi Calm Calm - N/A   Partly Cloudy
6:53 AM 39.9 °F 37.0 °F 89% 30.01 in 6.0 mi Calm Calm - N/A   Clear
7:53 AM 43.0 °F 41.0 °F 93% 30.04 in 10.0 mi Calm Calm - N/A   Clear
8:53 AM 50.0 °F 45.0 °F 83% 30.06 in 10.0 mi Calm Calm - N/A   Clear
9:53 AM 53.1 °F 43.0 °F 69% 30.06 in 10.0 mi Calm Calm - N/A   Clear
10:53 AM 55.9 °F 39.9 °F 55% 30.05 in 10.0 mi Calm Calm - N/A   Clear
11:53 AM 55.9 °F 37.0 °F 49% 30.05 in 10.0 mi Calm Calm - N/A   Clear
12:53 PM 55.9 °F 37.9 °F 51% 30.04 in 10.0 mi Calm Calm - N/A   Mostly Cloudy
1:53 PM 55.9 °F 42.1 °F 60% 30.04 in 10.0 mi South 5.8 mph - N/A   Mostly Cloudy
2:53 PM 55.0 °F 39.0 °F 55% 30.05 in 10.0 mi SSW 5.8 mph - N/A   Mostly Cloudy
3:53 PM 54.0 °F 41.0 °F 62% 30.04 in 10.0 mi Calm Calm - N/A   Clear
4:53 PM 54.0 °F 42.1 °F 64% 30.03 in 10.0 mi Calm Calm - N/A   Clear
5:53 PM 51.1 °F 46.0 °F 83% 30.03 in 10.0 mi Calm Calm - N/A   Clear
6:53 PM 48.9 °F 45.0 °F 86% 30.03 in 10.0 mi Calm Calm - N/A   Clear
7:53 PM 48.0 °F 45.0 °F 89% 30.03 in 10.0 mi Calm Calm - N/A   Clear
8:53 PM 48.0 °F 46.0 °F 93% 30.02 in 10.0 mi Calm Calm - N/A   Mostly Cloudy
9:53 PM 48.9 °F 46.0 °F 90% 30.02 in 10.0 mi Calm Calm - N/A   Overcast
10:53 PM 48.9 °F 46.0 °F 90% 30.03 in 10.0 mi Calm Calm - N/A   Overcast
11:53 PM 48.9 °F 46.9 °F 93% 30.05 in 6.0 mi Calm Calm - 0.03 in Rain Light Rain